owner,sensor,date,latitude,longitude,vertical_datum,sea_water_temperature,qcFlag
Shell,ioos:station:wmo:42882:1,2022-09-01T00:00:00Z,26.1867,-94.7600,11.3,30.9,11111222
Shell,ioos:station:wmo:42882:1,2022-09-01T00:10:00Z,26.1867,-94.7600,11.3,30.8,11111222
Shell,ioos:station:wmo:42882:1,2022-09-01T00:20:00Z,26.1867,-94.7600,11.3,30.8,11111222
Shell,ioos:station:wmo:42882:1,2022-09-01T00:30:00Z,26.1867,-94.7600,11.4,30.8,11111222
Shell,ioos:station:wmo:42882:1,2022-09-01T00:40:00Z,26.1867,-94.7600,11.4,30.8,11111222
Shell,ioos:station:wmo:42882:1,2022-09-01T00:50:00Z,26.1867,-94.7600,11.3,30.8,11111222
Shell,ioos:station:wmo:42882:1,2022-09-01T01:00:00Z,26.1867,-94.7600,11.1,30.8,11111222
Shell,ioos:station:wmo:42882:1,2022-09-01T01:10:00Z,26.1867,-94.7600,11.1,30.8,11111222
Shell,ioos:station:wmo:42882:1,2022-09-01T01:20:00Z,26.1867,-94.7600,10.9,30.8,11111222
Shell,ioos:station:wmo:42882:1,2022-09-01T01:30:00Z,26.1867,-94.7600,11.2,30.8,11111222
Shell,ioos:station:wmo:42882:1,2022-09-01T01:40:00Z,26.1867,-94.7600,11.3,30.8,11111222
Shell,ioos:station:wmo:42882:1,2022-09-01T01:50:00Z,26.1867,-94.7600,11.4,30.8,11111222
Shell,ioos:station:wmo:42882:1,2022-09-01T02:00:00Z,26.1867,-94.7600,11.5,30.8,11111222
Shell,ioos:station:wmo:42882:1,2022-09-01T02:10:00Z,26.1867,-94.7600,11.5,30.8,11111222
Shell,ioos:station:wmo:42882:1,2022-09-01T02:20:00Z,26.1867,-94.7600,11.5,30.8,11111222
Shell,ioos:station:wmo:42882:1,2022-09-01T02:30:00Z,26.1867,-94.7600,11.5,30.8,11111222
Shell,ioos:station:wmo:42882:1,2022-09-01T02:40:00Z,26.1867,-94.7600,11.5,30.8,11111222
Shell,ioos:station:wmo:42882:1,2022-09-01T02:50:00Z,26.1867,-94.7600,11.6,30.8,11111222
Shell,ioos:station:wmo:42882:1,2022-09-01T03:00:00Z,26.1867,-94.7600,11.2,30.8,11111222
Shell,ioos:station:wmo:42882:1,2022-09-01T03:10:00Z,26.1867,-94.7600,11.1,30.8,11111222
Shell,ioos:station:wmo:42882:1,2022-09-01T03:20:00Z,26.1867,-94.7600,11.0,30.8,11111222
Shell,ioos:station:wmo:42882:1,2022-09-01T03:30:00Z,26.1867,-94.7600,11.1,30.8,11111222
Shell,ioos:station:wmo:42882:1,2022-09-01T03:40:00Z,26.1867,-94.7600,11.0,30.8,11111222
Shell,ioos:station:wmo:42882:1,2022-09-01T03:50:00Z,26.1867,-94.7600,11.0,30.8,11111222
Shell,ioos:station:wmo:42882:1,2022-09-01T04:00:00Z,26.1867,-94.7600,11.0,30.8,11111222
Shell,ioos:station:wmo:42882:1,2022-09-01T04:09:00Z,26.1867,-94.7600,11.0,30.8,11111222
Shell,ioos:station:wmo:42882:1,2022-09-01T04:20:00Z,26.1867,-94.7600,11.3,30.8,11111222
Shell,ioos:station:wmo:42882:1,2022-09-01T04:30:00Z,26.1867,-94.7600,11.4,30.8,11111222
Shell,ioos:station:wmo:42882:1,2022-09-01T04:40:00Z,26.1867,-94.7600,11.4,30.8,11111222
Shell,ioos:station:wmo:42882:1,2022-09-01T04:50:00Z,26.1867,-94.7600,11.4,30.8,11111222
Shell,ioos:station:wmo:42882:1,2022-09-01T05:00:00Z,26.1867,-94.7600,11.8,30.8,11111222
Shell,ioos:station:wmo:42882:1,2022-09-01T05:10:00Z,26.1867,-94.7600,11.6,30.8,11111222
Shell,ioos:station:wmo:42882:1,2022-09-01T05:20:00Z,26.1867,-94.7600,11.4,30.8,11111222
Shell,ioos:station:wmo:42882:1,2022-09-01T05:30:00Z,26.1867,-94.7600,11.3,30.8,11111222
Shell,ioos:station:wmo:42882:1,2022-09-01T05:40:00Z,26.1867,-94.7600,11.1,30.8,11111222
Shell,ioos:station:wmo:42882:1,2022-09-01T05:50:00Z,26.1867,-94.7600,11.0,30.8,11111222
Shell,ioos:station:wmo:42882:1,2022-09-01T06:00:00Z,26.1867,-94.7600,10.9,30.8,11111222
Shell,ioos:station:wmo:42882:1,2022-09-01T06:10:00Z,26.1867,-94.7600,11.1,30.7,11111222
Shell,ioos:station:wmo:42882:1,2022-09-01T06:20:00Z,26.1867,-94.7600,11.4,30.7,11111222
Shell,ioos:station:wmo:42882:1,2022-09-01T06:30:00Z,26.1867,-94.7600,11.4,30.7,11111222
Shell,ioos:station:wmo:42882:1,2022-09-01T06:40:00Z,26.1867,-94.7600,11.3,30.7,11111222
Shell,ioos:station:wmo:42882:1,2022-09-01T06:50:00Z,26.1867,-94.7600,11.3,30.7,11111222
Shell,ioos:station:wmo:42882:1,2022-09-01T07:00:00Z,26.1867,-94.7600,11.3,30.7,11111222
Shell,ioos:station:wmo:42882:1,2022-09-01T07:10:00Z,26.1867,-94.7600,11.3,30.7,11111222
Shell,ioos:station:wmo:42882:1,2022-09-01T07:20:00Z,26.1867,-94.7600,11.3,30.7,11111222
Shell,ioos:station:wmo:42882:1,2022-09-01T07:30:00Z,26.1867,-94.7600,11.3,30.7,11111222
Shell,ioos:station:wmo:42882:1,2022-09-01T07:40:00Z,26.1867,-94.7600,11.3,30.7,11111222
Shell,ioos:station:wmo:42882:1,2022-09-01T07:50:00Z,26.1867,-94.7600,11.4,30.7,11111222
Shell,ioos:station:wmo:42882:1,2022-09-01T08:00:00Z,26.1867,-94.7600,11.3,30.7,11111222
Shell,ioos:station:wmo:42882:1,2022-09-01T08:09:00Z,26.1867,-94.7600,11.4,30.7,11111222
Shell,ioos:station:wmo:42882:1,2022-09-01T08:20:00Z,26.1867,-94.7600,11.6,30.7,11111222
Shell,ioos:station:wmo:42882:1,2022-09-01T08:30:00Z,26.1867,-94.7600,11.4,30.7,11111222
Shell,ioos:station:wmo:42882:1,2022-09-01T08:40:00Z,26.1867,-94.7600,11.4,30.7,11111222
Shell,ioos:station:wmo:42882:1,2022-09-01T08:50:00Z,26.1867,-94.7600,11.3,30.7,11111222
Shell,ioos:station:wmo:42882:1,2022-09-01T09:00:00Z,26.1867,-94.7600,11.3,30.7,11111222
Shell,ioos:station:wmo:42882:1,2022-09-01T09:10:00Z,26.1867,-94.7600,11.4,30.7,11111222
Shell,ioos:station:wmo:42882:1,2022-09-01T09:20:00Z,26.1867,-94.7600,11.4,30.7,11111222
Shell,ioos:station:wmo:42882:1,2022-09-01T09:30:00Z,26.1867,-94.7600,11.4,30.7,11111222
Shell,ioos:station:wmo:42882:1,2022-09-01T09:40:00Z,26.1867,-94.7600,11.4,30.7,11111222
Shell,ioos:station:wmo:42882:1,2022-09-01T09:50:00Z,26.1867,-94.7600,11.4,30.7,11111222
Shell,ioos:station:wmo:42882:1,2022-09-01T10:00:00Z,26.1870,-94.7601,11.3,30.7,11111222
Shell,ioos:station:wmo:42882:1,2022-09-01T10:10:00Z,26.1877,-94.7596,11.2,30.7,11111222
Shell,ioos:station:wmo:42882:1,2022-09-01T10:20:00Z,26.1887,-94.7586,11.2,30.7,11111222
Shell,ioos:station:wmo:42882:1,2022-09-01T10:30:00Z,26.1898,-94.7576,11.2,30.7,11111222
Shell,ioos:station:wmo:42882:1,2022-09-01T10:40:00Z,26.1909,-94.7566,11.2,30.7,11111222
Shell,ioos:station:wmo:42882:1,2022-09-01T10:50:00Z,26.1920,-94.7557,11.2,30.8,11111222
Shell,ioos:station:wmo:42882:1,2022-09-01T11:00:00Z,26.1930,-94.7547,11.2,30.8,11111222
Shell,ioos:station:wmo:42882:1,2022-09-01T11:10:00Z,26.1941,-94.7537,11.3,30.8,11111222
Shell,ioos:station:wmo:42882:1,2022-09-01T11:20:00Z,26.1952,-94.7527,11.1,30.8,11111222
Shell,ioos:station:wmo:42882:1,2022-09-01T11:30:00Z,26.1963,-94.7517,10.9,30.8,11111222
Shell,ioos:station:wmo:42882:1,2022-09-01T11:40:00Z,26.1974,-94.7508,11.0,30.8,11111222
Shell,ioos:station:wmo:42882:1,2022-09-01T11:50:00Z,26.1985,-94.7498,11.1,30.8,11111222
Shell,ioos:station:wmo:42882:1,2022-09-01T12:00:00Z,26.1994,-94.7490,11.1,30.9,11111222
Shell,ioos:station:wmo:42882:1,2022-09-01T12:10:00Z,26.1997,-94.7486,11.2,30.9,11111222
Shell,ioos:station:wmo:42882:1,2022-09-01T12:20:00Z,26.1996,-94.7485,11.2,30.9,11111222
Shell,ioos:station:wmo:42882:1,2022-09-01T12:30:00Z,26.1994,-94.7485,11.3,30.9,11111222
Shell,ioos:station:wmo:42882:1,2022-09-01T12:40:00Z,26.1994,-94.7485,11.3,30.9,11111222
Shell,ioos:station:wmo:42882:1,2022-09-01T12:50:00Z,26.1994,-94.7485,11.2,30.9,11111222
Shell,ioos:station:wmo:42882:1,2022-09-01T13:00:00Z,26.1994,-94.7485,11.2,30.9,11111222
Shell,ioos:station:wmo:42882:1,2022-09-01T13:10:00Z,26.1994,-94.7485,11.2,30.9,11111222
Shell,ioos:station:wmo:42882:1,2022-09-01T13:20:00Z,26.1994,-94.7485,11.2,30.9,11111222
Shell,ioos:station:wmo:42882:1,2022-09-01T13:30:00Z,26.1994,-94.7485,11.3,30.9,11111222
Shell,ioos:station:wmo:42882:1,2022-09-01T13:40:00Z,26.1994,-94.7485,11.2,30.9,11111222
Shell,ioos:station:wmo:42882:1,2022-09-01T13:50:00Z,26.1994,-94.7485,11.2,30.9,11111222
Shell,ioos:station:wmo:42882:1,2022-09-01T14:00:00Z,26.1994,-94.7485,11.2,30.9,11111222
Shell,ioos:station:wmo:42882:1,2022-09-01T14:10:00Z,26.1994,-94.7485,11.2,30.9,11111222
Shell,ioos:station:wmo:42882:1,2022-09-01T14:20:00Z,26.1994,-94.7485,11.4,30.9,11111222
Shell,ioos:station:wmo:42882:1,2022-09-01T14:30:00Z,26.1994,-94.7485,11.3,30.9,11111222
Shell,ioos:station:wmo:42882:1,2022-09-01T14:40:00Z,26.1994,-94.7485,11.4,30.9,11111222
Shell,ioos:station:wmo:42882:1,2022-09-01T14:50:00Z,26.1994,-94.7485,11.4,30.9,11111222
Shell,ioos:station:wmo:42882:1,2022-09-01T15:00:00Z,26.1994,-94.7485,11.3,30.9,11111222
Shell,ioos:station:wmo:42882:1,2022-09-01T15:10:00Z,26.1994,-94.7485,11.1,30.9,11111222
Shell,ioos:station:wmo:42882:1,2022-09-01T15:20:00Z,26.1993,-94.7485,11.1,30.9,11111222
Shell,ioos:station:wmo:42882:1,2022-09-01T15:30:00Z,26.1993,-94.7485,11.1,30.9,11111222
Shell,ioos:station:wmo:42882:1,2022-09-01T15:40:00Z,26.1993,-94.7485,11.1,30.8,11111222
Shell,ioos:station:wmo:42882:1,2022-09-01T15:50:00Z,26.1993,-94.7485,11.3,30.8,11111222
Shell,ioos:station:wmo:42882:1,2022-09-01T16:00:00Z,26.1992,-94.7485,11.4,30.9,11111222
Shell,ioos:station:wmo:42882:1,2022-09-01T16:10:00Z,26.1992,-94.7485,11.5,30.9,11111222
Shell,ioos:station:wmo:42882:1,2022-09-01T16:20:00Z,26.1992,-94.7485,11.5,30.9,11111222
Shell,ioos:station:wmo:42882:1,2022-09-01T16:30:00Z,26.1992,-94.7485,11.5,30.9,11111222
Shell,ioos:station:wmo:42882:1,2022-09-01T16:40:00Z,26.1992,-94.7485,11.5,30.9,11111222
Shell,ioos:station:wmo:42882:1,2022-09-01T16:50:00Z,26.1995,-94.7485,11.3,30.9,11111222
Shell,ioos:station:wmo:42882:1,2022-09-01T17:00:00Z,26.1996,-94.7485,11.3,30.9,11111222
Shell,ioos:station:wmo:42882:1,2022-09-01T17:10:00Z,26.1996,-94.7485,11.4,30.9,11111222
Shell,ioos:station:wmo:42882:1,2022-09-01T17:20:00Z,26.1996,-94.7485,11.5,30.9,11111222
Shell,ioos:station:wmo:42882:1,2022-09-01T17:30:00Z,26.1996,-94.7485,11.5,30.9,11111222
Shell,ioos:station:wmo:42882:1,2022-09-01T17:40:00Z,26.1996,-94.7485,11.5,30.9,11111222
Shell,ioos:station:wmo:42882:1,2022-09-01T17:50:00Z,26.1996,-94.7485,11.5,30.9,11111222
Shell,ioos:station:wmo:42882:1,2022-09-01T18:00:00Z,26.1996,-94.7485,11.5,30.9,11111222
Shell,ioos:station:wmo:42882:1,2022-09-01T18:10:00Z,26.1996,-94.7485,11.4,30.9,11111222
Shell,ioos:station:wmo:42882:1,2022-09-01T18:19:00Z,26.1996,-94.7485,11.3,30.9,11111222
Shell,ioos:station:wmo:42882:1,2022-09-01T18:30:00Z,26.1996,-94.7485,11.3,30.9,11111222
Shell,ioos:station:wmo:42882:1,2022-09-01T18:40:00Z,26.1996,-94.7485,11.3,30.9,11111222
Shell,ioos:station:wmo:42882:1,2022-09-01T18:50:00Z,26.1996,-94.7485,11.3,30.9,11111222
Shell,ioos:station:wmo:42882:1,2022-09-01T19:00:00Z,26.1996,-94.7485,11.3,30.9,11111222
Shell,ioos:station:wmo:42882:1,2022-09-01T19:10:00Z,26.1996,-94.7485,11.4,30.9,11111222
Shell,ioos:station:wmo:42882:1,2022-09-01T19:20:00Z,26.1996,-94.7485,11.4,30.9,11111222
Shell,ioos:station:wmo:42882:1,2022-09-01T19:30:00Z,26.1996,-94.7485,11.4,30.9,11111222
Shell,ioos:station:wmo:42882:1,2022-09-01T19:40:00Z,26.1996,-94.7485,11.4,31.0,11111222
Shell,ioos:station:wmo:42882:1,2022-09-01T19:50:00Z,26.1996,-94.7485,11.4,31.0,11111222
Shell,ioos:station:wmo:42882:1,2022-09-01T20:00:00Z,26.1996,-94.7485,11.3,31.0,11111222
Shell,ioos:station:wmo:42882:1,2022-09-01T20:10:00Z,26.1996,-94.7486,11.2,31.0,11111222
Shell,ioos:station:wmo:42882:1,2022-09-01T20:20:00Z,26.1996,-94.7485,11.3,31.0,11111222
Shell,ioos:station:wmo:42882:1,2022-09-01T20:30:00Z,26.1996,-94.7486,11.4,31.0,11111222
Shell,ioos:station:wmo:42882:1,2022-09-01T20:40:00Z,26.1996,-94.7486,11.4,31.0,11111222
Shell,ioos:station:wmo:42882:1,2022-09-01T20:50:00Z,26.1996,-94.7486,11.4,31.0,11111222
Shell,ioos:station:wmo:42882:1,2022-09-01T21:00:00Z,26.1996,-94.7486,11.3,31.0,11111222
Shell,ioos:station:wmo:42882:1,2022-09-01T21:10:00Z,26.1996,-94.7485,11.3,31.0,11111222
Shell,ioos:station:wmo:42882:1,2022-09-01T21:20:00Z,26.1996,-94.7485,11.3,31.0,11111222
Shell,ioos:station:wmo:42882:1,2022-09-01T21:30:00Z,26.1996,-94.7486,11.1,31.0,11111222
Shell,ioos:station:wmo:42882:1,2022-09-01T21:40:00Z,26.1996,-94.7485,11.1,31.0,11111222
Shell,ioos:station:wmo:42882:1,2022-09-01T21:50:00Z,26.1995,-94.7485,11.1,31.1,11111222
Shell,ioos:station:wmo:42882:1,2022-09-01T22:00:00Z,26.1995,-94.7485,11.3,31.0,11111222
Shell,ioos:station:wmo:42882:1,2022-09-01T22:10:00Z,26.1995,-94.7485,11.4,31.1,11111222
Shell,ioos:station:wmo:42882:1,2022-09-01T22:20:00Z,26.1995,-94.7485,11.4,31.1,11111222
Shell,ioos:station:wmo:42882:1,2022-09-01T22:30:00Z,26.1995,-94.7485,11.4,31.1,11111222
Shell,ioos:station:wmo:42882:1,2022-09-01T22:40:00Z,26.1995,-94.7485,11.4,31.0,11111222
Shell,ioos:station:wmo:42882:1,2022-09-01T22:50:00Z,26.1995,-94.7485,11.4,31.0,11111222
Shell,ioos:station:wmo:42882:1,2022-09-01T23:00:00Z,26.1995,-94.7485,11.4,31.0,11111222
Shell,ioos:station:wmo:42882:1,2022-09-01T23:10:00Z,26.1995,-94.7485,11.4,31.0,11111222
Shell,ioos:station:wmo:42882:1,2022-09-01T23:20:00Z,26.1995,-94.7485,11.4,31.0,11111222
Shell,ioos:station:wmo:42882:1,2022-09-01T23:30:00Z,26.1995,-94.7485,11.4,31.0,11111222
Shell,ioos:station:wmo:42882:1,2022-09-01T23:40:00Z,26.1995,-94.7485,11.4,31.0,11111222
Shell,ioos:station:wmo:42882:1,2022-09-01T23:50:00Z,26.1995,-94.7485,11.4,31.0,11111222
Shell,ioos:station:wmo:42882:1,2022-09-02T00:00:00Z,26.1995,-94.7485,11.4,31.0,11111222
Shell,ioos:station:wmo:42882:1,2022-09-02T00:10:00Z,26.1995,-94.7485,11.4,31.0,11111222
Shell,ioos:station:wmo:42882:1,2022-09-02T00:20:00Z,26.1995,-94.7485,11.4,30.9,11111222
Shell,ioos:station:wmo:42882:1,2022-09-02T00:30:00Z,26.1995,-94.7485,11.4,30.9,11111222
Shell,ioos:station:wmo:42882:1,2022-09-02T00:40:00Z,26.1995,-94.7485,11.4,30.9,11111222
Shell,ioos:station:wmo:42882:1,2022-09-02T00:50:00Z,26.1995,-94.7485,11.4,30.9,11111222
Shell,ioos:station:wmo:42882:1,2022-09-02T01:00:00Z,26.1995,-94.7485,11.3,30.9,11111222
Shell,ioos:station:wmo:42882:1,2022-09-02T01:10:00Z,26.1995,-94.7485,11.3,30.9,11111222
Shell,ioos:station:wmo:42882:1,2022-09-02T01:20:00Z,26.1995,-94.7485,11.3,30.9,11111222
Shell,ioos:station:wmo:42882:1,2022-09-02T01:30:00Z,26.1995,-94.7485,11.2,30.9,11111222
Shell,ioos:station:wmo:42882:1,2022-09-02T01:40:00Z,26.1994,-94.7485,11.2,30.9,11111222
Shell,ioos:station:wmo:42882:1,2022-09-02T01:50:00Z,26.1995,-94.7485,11.2,30.9,11111222
Shell,ioos:station:wmo:42882:1,2022-09-02T02:00:00Z,26.1995,-94.7485,11.2,30.9,11111222
Shell,ioos:station:wmo:42882:1,2022-09-02T02:10:00Z,26.1995,-94.7485,11.3,30.9,11111222
Shell,ioos:station:wmo:42882:1,2022-09-02T02:20:00Z,26.1995,-94.7485,11.2,30.9,11111222
Shell,ioos:station:wmo:42882:1,2022-09-02T02:30:00Z,26.1995,-94.7485,11.2,30.9,11111222
Shell,ioos:station:wmo:42882:1,2022-09-02T02:40:00Z,26.1995,-94.7485,11.2,30.9,11111222
Shell,ioos:station:wmo:42882:1,2022-09-02T02:50:00Z,26.1995,-94.7485,11.2,30.9,11111222
Shell,ioos:station:wmo:42882:1,2022-09-02T03:00:00Z,26.1995,-94.7485,11.2,30.9,11111222
Shell,ioos:station:wmo:42882:1,2022-09-02T03:10:00Z,26.1995,-94.7485,11.3,30.9,11111222
Shell,ioos:station:wmo:42882:1,2022-09-02T03:20:00Z,26.1995,-94.7485,11.4,30.9,11111222
Shell,ioos:station:wmo:42882:1,2022-09-02T03:30:00Z,26.1995,-94.7485,11.4,30.9,11111222
Shell,ioos:station:wmo:42882:1,2022-09-02T03:40:00Z,26.1995,-94.7485,11.4,30.9,11111222
Shell,ioos:station:wmo:42882:1,2022-09-02T03:50:00Z,26.1995,-94.7485,11.4,30.9,11111222
Shell,ioos:station:wmo:42882:1,2022-09-02T04:00:00Z,26.1995,-94.7485,11.3,30.8,11111222
Shell,ioos:station:wmo:42882:1,2022-09-02T04:10:00Z,26.1995,-94.7485,11.3,30.8,11111222
Shell,ioos:station:wmo:42882:1,2022-09-02T04:20:00Z,26.1995,-94.7485,11.4,30.8,11111222
Shell,ioos:station:wmo:42882:1,2022-09-02T04:30:00Z,26.1995,-94.7485,11.3,30.8,11111222
Shell,ioos:station:wmo:42882:1,2022-09-02T04:40:00Z,26.1995,-94.7485,11.3,30.8,11111222
Shell,ioos:station:wmo:42882:1,2022-09-02T04:50:00Z,26.1995,-94.7485,11.2,30.8,11111222
Shell,ioos:station:wmo:42882:1,2022-09-02T05:00:00Z,26.1995,-94.7485,11.2,30.8,11111222
Shell,ioos:station:wmo:42882:1,2022-09-02T05:10:00Z,26.1996,-94.7487,11.3,30.8,11111222
Shell,ioos:station:wmo:42882:1,2022-09-02T05:20:00Z,26.1999,-94.7492,11.3,30.8,11111222
Shell,ioos:station:wmo:42882:1,2022-09-02T05:30:00Z,26.2002,-94.7497,11.3,30.8,11111222
Shell,ioos:station:wmo:42882:1,2022-09-02T05:40:00Z,26.2005,-94.7502,11.3,30.8,11111222
Shell,ioos:station:wmo:42882:1,2022-09-02T05:50:00Z,26.2006,-94.7506,11.4,30.8,11111222
Shell,ioos:station:wmo:42882:1,2022-09-02T06:00:00Z,26.2006,-94.7507,11.3,30.8,11111222
Shell,ioos:station:wmo:42882:1,2022-09-02T06:10:00Z,26.2006,-94.7507,11.2,30.8,11111222
Shell,ioos:station:wmo:42882:1,2022-09-02T06:20:00Z,26.2006,-94.7507,11.2,30.8,11111222
Shell,ioos:station:wmo:42882:1,2022-09-02T06:30:00Z,26.2006,-94.7507,11.2,30.8,11111222
Shell,ioos:station:wmo:42882:1,2022-09-02T06:40:00Z,26.2006,-94.7507,11.2,30.8,11111222
Shell,ioos:station:wmo:42882:1,2022-09-02T06:50:00Z,26.2006,-94.7507,11.3,30.8,11111222
Shell,ioos:station:wmo:42882:1,2022-09-02T07:00:00Z,26.2006,-94.7507,11.3,30.8,11111222
Shell,ioos:station:wmo:42882:1,2022-09-02T07:10:00Z,26.2006,-94.7507,11.3,30.8,11111222
Shell,ioos:station:wmo:42882:1,2022-09-02T07:20:00Z,26.2006,-94.7507,11.3,30.8,11111222
Shell,ioos:station:wmo:42882:1,2022-09-02T07:30:00Z,26.2006,-94.7507,11.2,30.8,11111222
Shell,ioos:station:wmo:42882:1,2022-09-02T07:40:00Z,26.2006,-94.7507,11.3,30.9,11111222
Shell,ioos:station:wmo:42882:1,2022-09-02T07:50:00Z,26.2006,-94.7507,11.3,30.9,11111222
Shell,ioos:station:wmo:42882:1,2022-09-02T08:00:00Z,26.2006,-94.7507,11.2,30.9,11111222
Shell,ioos:station:wmo:42882:1,2022-09-02T08:10:00Z,26.2006,-94.7507,11.2,30.9,11111222
Shell,ioos:station:wmo:42882:1,2022-09-02T08:20:00Z,26.2006,-94.7507,11.2,30.8,11111222
Shell,ioos:station:wmo:42882:1,2022-09-02T08:30:00Z,26.2006,-94.7507,11.2,30.9,11111222
Shell,ioos:station:wmo:42882:1,2022-09-02T08:40:00Z,26.2006,-94.7507,11.2,30.9,11111222
Shell,ioos:station:wmo:42882:1,2022-09-02T08:50:00Z,26.2006,-94.7507,11.2,30.9,11111222
Shell,ioos:station:wmo:42882:1,2022-09-02T09:00:00Z,26.2006,-94.7507,11.2,30.9,11111222
Shell,ioos:station:wmo:42882:1,2022-09-02T09:10:00Z,26.2006,-94.7507,11.2,30.9,11111222
Shell,ioos:station:wmo:42882:1,2022-09-02T09:20:00Z,26.2006,-94.7507,11.2,30.9,11111222
Shell,ioos:station:wmo:42882:1,2022-09-02T09:30:00Z,26.2006,-94.7507,11.4,30.9,11111222
Shell,ioos:station:wmo:42882:1,2022-09-02T09:40:00Z,26.2006,-94.7507,11.5,30.9,11111222
Shell,ioos:station:wmo:42882:1,2022-09-02T09:50:00Z,26.2006,-94.7507,11.4,30.9,11111222
Shell,ioos:station:wmo:42882:1,2022-09-02T10:00:00Z,26.2006,-94.7507,11.5,30.9,11111222
Shell,ioos:station:wmo:42882:1,2022-09-02T10:10:00Z,26.2006,-94.7507,11.5,30.9,11111222
Shell,ioos:station:wmo:42882:1,2022-09-02T10:20:00Z,26.2006,-94.7507,11.5,30.9,11111222
Shell,ioos:station:wmo:42882:1,2022-09-02T10:30:00Z,26.2006,-94.7507,11.4,31.0,11111222
Shell,ioos:station:wmo:42882:1,2022-09-02T10:40:00Z,26.2006,-94.7507,11.3,30.9,11111222
Shell,ioos:station:wmo:42882:1,2022-09-02T10:50:00Z,26.2006,-94.7507,11.7,31.0,11111222
Shell,ioos:station:wmo:42882:1,2022-09-02T10:59:00Z,26.2006,-94.7507,11.7,31.0,11111222
Shell,ioos:station:wmo:42882:1,2022-09-02T11:10:00Z,26.2006,-94.7507,11.7,31.0,11111222
Shell,ioos:station:wmo:42882:1,2022-09-02T11:20:00Z,26.2006,-94.7507,11.7,30.9,11111222
Shell,ioos:station:wmo:42882:1,2022-09-02T11:30:00Z,26.2006,-94.7507,11.4,30.9,11111222
Shell,ioos:station:wmo:42882:1,2022-09-02T11:40:00Z,26.2006,-94.7507,11.2,30.9,11111222
Shell,ioos:station:wmo:42882:1,2022-09-02T11:50:00Z,26.2006,-94.7507,11.4,30.9,11111222
Shell,ioos:station:wmo:42882:1,2022-09-02T12:00:00Z,26.2006,-94.7507,11.3,30.9,11111222
Shell,ioos:station:wmo:42882:1,2022-09-02T12:10:00Z,26.2007,-94.7507,11.2,30.9,11111222
Shell,ioos:station:wmo:42882:1,2022-09-02T12:20:00Z,26.2007,-94.7507,11.3,30.9,11111222
Shell,ioos:station:wmo:42882:1,2022-09-02T12:30:00Z,26.2007,-94.7507,11.2,30.9,11111222
Shell,ioos:station:wmo:42882:1,2022-09-02T12:40:00Z,26.2007,-94.7507,11.2,30.9,11111222
Shell,ioos:station:wmo:42882:1,2022-09-02T12:50:00Z,26.2007,-94.7507,11.2,30.9,11111222
Shell,ioos:station:wmo:42882:1,2022-09-02T13:00:00Z,26.2007,-94.7506,11.2,30.9,11111222
Shell,ioos:station:wmo:42882:1,2022-09-02T13:10:00Z,26.2007,-94.7507,11.2,30.9,11111222
Shell,ioos:station:wmo:42882:1,2022-09-02T13:20:00Z,26.2007,-94.7506,11.3,30.9,11111222
Shell,ioos:station:wmo:42882:1,2022-09-02T13:30:00Z,26.2007,-94.7507,11.4,30.9,11111222
Shell,ioos:station:wmo:42882:1,2022-09-02T13:40:00Z,26.2007,-94.7507,11.5,30.9,11111222
Shell,ioos:station:wmo:42882:1,2022-09-02T13:50:00Z,26.2007,-94.7507,11.4,30.9,11111222
Shell,ioos:station:wmo:42882:1,2022-09-02T14:00:00Z,26.2007,-94.7507,11.3,30.9,11111222
Shell,ioos:station:wmo:42882:1,2022-09-02T14:10:00Z,26.2007,-94.7507,11.4,30.9,11111222
Shell,ioos:station:wmo:42882:1,2022-09-02T14:20:00Z,26.2007,-94.7506,11.2,30.9,11111222
Shell,ioos:station:wmo:42882:1,2022-09-02T14:30:00Z,26.2007,-94.7506,11.3,30.9,11111222
Shell,ioos:station:wmo:42882:1,2022-09-02T14:40:00Z,26.2007,-94.7507,11.4,30.9,11111222
Shell,ioos:station:wmo:42882:1,2022-09-02T14:50:00Z,26.2007,-94.7507,11.3,30.9,11111222
Shell,ioos:station:wmo:42882:1,2022-09-02T15:00:00Z,26.2007,-94.7506,11.2,30.9,11111222
Shell,ioos:station:wmo:42882:1,2022-09-02T15:10:00Z,26.2007,-94.7506,11.6,30.8,11111222
Shell,ioos:station:wmo:42882:1,2022-09-02T15:20:00Z,26.2007,-94.7506,11.6,30.8,11111222
Shell,ioos:station:wmo:42882:1,2022-09-02T15:30:00Z,26.2007,-94.7506,11.3,30.8,11111222
Shell,ioos:station:wmo:42882:1,2022-09-02T15:40:00Z,26.2007,-94.7506,11.3,30.8,11111222
Shell,ioos:station:wmo:42882:1,2022-09-02T15:50:00Z,26.2007,-94.7506,11.3,30.8,11111222
Shell,ioos:station:wmo:42882:1,2022-09-02T16:00:00Z,26.2007,-94.7506,11.4,30.8,11111222
Shell,ioos:station:wmo:42882:1,2022-09-02T16:10:00Z,26.2007,-94.7506,11.3,30.8,11111222
Shell,ioos:station:wmo:42882:1,2022-09-02T16:20:00Z,26.2007,-94.7507,11.2,30.8,11111222
Shell,ioos:station:wmo:42882:1,2022-09-02T16:30:00Z,26.2007,-94.7507,11.2,30.8,11111222
Shell,ioos:station:wmo:42882:1,2022-09-02T16:40:00Z,26.2007,-94.7507,11.2,30.8,11111222
Shell,ioos:station:wmo:42882:1,2022-09-02T16:50:00Z,26.2007,-94.7506,11.2,30.8,11111222
Shell,ioos:station:wmo:42882:1,2022-09-02T17:00:00Z,26.2007,-94.7506,11.4,30.8,11111222
Shell,ioos:station:wmo:42882:1,2022-09-02T17:10:00Z,26.2007,-94.7506,11.5,30.8,11111222
Shell,ioos:station:wmo:42882:1,2022-09-02T17:20:00Z,26.2007,-94.7507,11.3,30.8,11111222
Shell,ioos:station:wmo:42882:1,2022-09-02T17:30:00Z,26.2007,-94.7506,11.4,30.8,11111222
Shell,ioos:station:wmo:42882:1,2022-09-02T17:40:00Z,26.2007,-94.7507,11.3,30.8,11111222
Shell,ioos:station:wmo:42882:1,2022-09-02T17:50:00Z,26.2007,-94.7506,11.2,30.8,11111222
Shell,ioos:station:wmo:42882:1,2022-09-02T18:00:00Z,26.2007,-94.7506,11.3,30.8,11111222
Shell,ioos:station:wmo:42882:1,2022-09-02T18:10:00Z,26.2007,-94.7506,11.2,30.8,11111222
Shell,ioos:station:wmo:42882:1,2022-09-02T18:20:00Z,26.2007,-94.7507,11.2,30.8,11111222
Shell,ioos:station:wmo:42882:1,2022-09-02T18:30:00Z,26.2007,-94.7506,11.3,30.8,11111222
Shell,ioos:station:wmo:42882:1,2022-09-02T18:40:00Z,26.2007,-94.7507,11.4,30.8,11111222
Shell,ioos:station:wmo:42882:1,2022-09-02T18:50:00Z,26.2007,-94.7506,11.2,30.8,11111222
Shell,ioos:station:wmo:42882:1,2022-09-02T19:00:00Z,26.2007,-94.7506,11.2,30.8,11111222
Shell,ioos:station:wmo:42882:1,2022-09-02T19:10:00Z,26.2007,-94.7506,11.3,30.7,11111222
Shell,ioos:station:wmo:42882:1,2022-09-02T19:20:00Z,26.2007,-94.7506,11.3,30.7,11111222
Shell,ioos:station:wmo:42882:1,2022-09-02T19:30:00Z,26.2007,-94.7506,11.3,30.7,11111222
Shell,ioos:station:wmo:42882:1,2022-09-02T19:40:00Z,26.2007,-94.7506,11.4,30.8,11111222
Shell,ioos:station:wmo:42882:1,2022-09-02T19:50:00Z,26.2006,-94.7506,11.3,30.8,11111222
Shell,ioos:station:wmo:42882:1,2022-09-02T20:00:00Z,26.2007,-94.7506,11.3,30.8,11111222
Shell,ioos:station:wmo:42882:1,2022-09-02T20:10:00Z,26.2007,-94.7506,11.4,30.8,11111222
Shell,ioos:station:wmo:42882:1,2022-09-02T20:20:00Z,26.2007,-94.7506,11.4,30.8,11111222
Shell,ioos:station:wmo:42882:1,2022-09-02T20:30:00Z,26.2007,-94.7506,11.3,30.8,11111222